GFSGL_500_spd_000.txt.gz
Wind_Speed
74 71 67 66 64 63 63 64 64 64 65 66 69 72 75 79 84 87 89 89 91 92 93 93 92 89 86 82 79 80 81 80 79 79 82 80 78 74 71 69 83 73 79
69 66 65 63 60 60 63 62 62 64 65 70 72 76 80 82 83 84 87 91 93 91 89 86 82 77 78 80 82 82 83 81 79 77 81 81 83 84 70 70 74 82 79
64 64 62 59 59 61 60 61 62 65 68 72 77 79 79 81 85 89 88 85 78 67 61 59 56 55 56 56 62 78 83 84 80 77 82 80 84 89 89 76 62 79 83
61 61 60 60 60 60 61 62 65 67 73 74 75 77 81 85 83 77 66 58 52 44 42 42 43 46 48 50 53 60 73 85 84 79 81 81 82 84 90 87 66 70 70
58 57 59 58 59 60 61 62 67 73 73 74 78 81 80 75 63 55 43 37 35 32 34 38 40 41 40 42 46 54 59 78 87 85 81 82 81 83 81 87 74 63 64
56 56 56 57 58 61 62 68 72 72 74 79 77 72 61 55 39 34 32 31 34 35 38 39 41 41 39 39 42 42 52 62 80 89 84 83 81 81 82 79 82 79 70
56 55 55 58 60 61 68 70 71 74 75 72 61 50 43 29 29 26 28 33 36 36 37 39 38 37 37 38 38 41 47 54 68 80 91 87 81 83 82 79 77 83 81
54 54 57 59 61 67 68 69 72 71 66 52 41 34 27 23 25 28 33 37 35 34 37 37 38 39 40 41 39 39 40 50 60 71 82 87 85 80 86 81 76 79 83
53 56 58 61 65 65 67 70 68 61 46 36 29 26 23 22 30 32 35 36 35 37 42 42 46 45 42 43 43 37 33 34 52 65 71 81 86 85 82 85 82 76 80
55 57 60 63 63 66 68 64 57 44 34 25 23 23 24 26 32 35 36 36 39 43 45 46 45 43 36 37 41 35 30 27 41 59 66 68 78 85 83 86 84 79 76
55 60 61 60 64 65 62 55 43 33 24 21 20 22 26 28 31 32 35 34 29 25 27 29 31 23 20 24 34 36 23 20 29 49 61 63 69 80 85 84 86 81 76
59 58 58 62 63 60 53 42 33 28 17 19 20 23 28 28 30 32 32 31 28 24 21 20 16 14 16 23 29 30 26 24 19 35 51 59 64 72 80 83 82 81 76
58 56 60 61 57 52 42 33 31 20 17 17 21 24 26 27 30 29 26 27 23 16 12 12 12 15 16 17 19 16 31 29 26 24 37 49 57 63 69 79 80 79 77
55 57 59 56 49 41 37 30 25 17 15 17 22 22 24 25 24 26 22 19 14 11 4 8 7 7 8 1 4 1 10 17 24 25 33 40 50 54 58 65 75 76 77
55 56 55 49 41 36 31 29 22 15 13 15 17 20 18 22 22 21 21 15 10 10 8 7 6 6 9 2 5 5 5 2 10 21 21 35 42 48 50 54 65 72 75
55 53 48 41 35 33 26 25 22 9 12 14 17 15 19 19 20 23 21 17 8 8 9 7 2 5 3 5 9 4 7 6 5 7 17 22 27 36 44 48 54 65 73
52 48 42 33 30 31 25 20 16 19 10 13 15 14 17 16 18 14 16 17 16 14 12 9 4 4 5 5 4 1 5 3 13 14 12 16 21 28 34 39 44 54 67
49 42 34 28 29 27 23 15 13 13 12 13 12 13 15 12 14 8 9 9 14 13 11 18 20 18 15 8 6 7 5 8 7 7 8 8 13 19 24 29 36 42 49
44 36 28 25 25 27 17 11 11 11 6 10 10 10 10 9 9 4 3 9 17 17 18 17 17 18 18 20 18 16 13 8 11 12 12 12 14 19 21 19 22 32 34
37 30 24 22 24 23 14 10 10 6 4 5 8 5 4 5 5 4 8 12 19 21 22 24 27 29 29 24 20 24 23 17 9 16 14 15 15 27 29 25 24 30 25
32 26 22 19 23 18 14 10 9 5 3 3 6 2 0 2 3 4 5 10 16 18 19 21 22 23 24 25 27 28 26 27 24 18 16 21 25 20 15 19 21 25 28
28 23 20 17 20 16 13 10 10 6 4 3 3 3 3 5 5 2 4 7 11 12 14 14 15 15 16 16 17 18 18 19 20 19 18 20 20 16 6 6 7 11 19
24 20 19 16 18 14 12 11 10 7 6 5 5 4 7 7 7 6 4 4 5 6 7 9 9 10 10 11 12 12 12 11 10 11 10 9 8 7 7 8 9 11 14
21 18 17 15 17 13 11 9 10 8 7 6 7 7 8 10 9 10 9 8 5 2 2 3 4 6 6 6 6 7 7 7 6 5 5 4 3 3 5 7 10 13 16
17 16 15 13 15 12 10 8 9 7 6 7 8 9 10 11 13 13 12 11 10 7 5 4 3 3 3 3 3 3 3 2 2 2 3 5 7 9 11 14 16 18 21
15 16 13 12 13 10 8 8 8 9 6 4 4 7 11 13 15 16 17 17 16 13 11 9 8 7 7 7 7 7 7 6 6 7 8 10 11 13 15 17 20 23 27

GFSGL_500_spd_003.txt.gz
Wind_Speed
73 75 72 68 65 63 60 62 65 65 63 62 60 59 59 61 62 65 69 74 78 81 80 79 80 81 82 82 82 82 83 81 80 75 79 79 81 82 82 81 79 82 81
75 75 69 67 65 60 59 62 64 63 60 59 59 60 61 64 71 75 77 78 78 79 80 82 83 82 80 78 76 73 73 78 83 80 77 79 80 81 83 84 89 88 76
77 72 69 68 62 59 57 59 59 57 57 59 61 64 70 74 75 75 76 79 82 83 83 81 77 68 63 56 54 53 54 53 59 70 76 81 81 78 83 85 92 90 81
75 71 69 63 59 55 55 54 54 57 59 61 68 72 73 73 75 78 80 81 82 79 71 62 54 47 43 41 41 43 46 50 53 55 59 71 80 78 79 83 88 94 90
73 69 64 60 55 54 52 54 56 59 64 70 71 71 73 76 78 78 75 67 60 50 41 37 36 36 37 37 38 37 39 43 47 50 53 58 73 79 79 77 81 85 88
70 65 60 57 52 51 53 56 59 66 70 69 71 74 74 74 70 59 50 39 35 31 29 30 33 36 39 42 44 43 43 45 43 47 47 54 59 70 77 77 76 77 86
66 63 57 51 51 53 56 60 66 67 68 70 72 71 68 57 47 37 32 30 28 28 30 33 37 39 42 43 45 43 43 45 44 46 45 44 54 60 70 76 77 76 81
63 56 52 51 52 55 61 64 64 67 69 69 65 58 47 41 33 29 31 30 33 35 37 39 40 41 44 45 43 43 43 44 45 43 42 44 47 53 63 77 80 77 79
57 52 51 52 55 61 62 62 65 67 64 59 51 41 37 31 28 31 32 35 37 38 41 44 45 46 48 48 48 49 49 50 51 49 42 36 44 52 58 72 79 80 77
52 50 51 55 60 59 60 63 64 62 55 45 38 33 30 27 29 31 33 37 38 40 41 35 36 37 41 47 49 49 49 51 52 53 42 37 41 51 57 66 78 80 77
50 51 55 59 58 59 61 62 60 53 43 34 28 27 28 28 30 34 37 38 39 34 29 29 32 35 36 34 28 29 32 39 46 45 39 27 36 49 57 61 69 80 78
51 54 58 56 57 60 60 58 51 45 31 25 24 25 27 29 33 34 34 33 32 32 30 29 25 29 22 18 22 26 30 32 34 42 38 34 26 40 51 56 61 73 79
54 57 55 56 59 59 56 51 43 33 24 21 22 24 28 30 29 29 28 28 25 20 14 12 12 14 20 23 25 27 26 31 34 39 37 35 27 29 46 55 58 64 76
56 54 54 57 58 55 50 44 38 26 17 17 22 26 24 24 23 22 20 14 10 10 11 9 9 11 16 12 7 11 14 16 22 24 35 36 31 31 44 52 51 57 69
53 53 56 57 54 48 42 39 34 24 11 13 20 19 20 19 17 17 18 14 7 8 12 12 11 12 11 9 12 18 17 16 16 20 23 29 23 29 37 45 47 48 59
53 55 56 53 47 41 34 31 29 20 11 15 17 19 16 14 15 18 20 18 10 10 13 14 12 12 10 9 10 6 6 11 10 9 13 16 17 22 27 35 41 43 47
55 56 54 48 40 33 28 29 21 17 12 12 17 17 13 11 15 14 15 17 17 15 15 13 10 10 10 10 8 4 7 4 16 12 1 15 17 21 22 28 32 35 38
57 54 48 41 34 26 24 26 15 12 15 13 14 12 8 10 11 8 6 12 16 18 20 21 21 21 18 12 4 5 3 11 13 16 9 6 13 18 20 26 33 34 34
54 49 41 34 27 21 22 22 14 12 13 11 11 7 5 7 7 3 9 16 16 22 24 25 23 20 19 17 14 9 6 8 6 5 9 10 7 8 17 20 24 30 34
48 40 35 29 23 19 21 20 14 11 11 9 7 2 1 5 3 3 10 16 17 20 22 24 26 29 29 23 22 17 14 20 17 19 14 15 13 15 12 16 22 27 31
41 35 30 25 20 18 19 18 14 11 9 7 5 4 4 3 2 5 8 12 15 17 19 21 22 23 25 28 30 26 21 15 14 14 20 22 18 11 9 10 11 15 27
34 30 26 22 19 17 18 15 13 12 9 8 6 6 8 6 3 3 5 9 12 15 16 18 19 19 19 20 21 23 25 23 19 18 16 15 13 19 20 13 12 9 12
28 26 22 18 18 17 17 14 12 11 10 9 9 7 10 11 8 5 4 3 6 10 11 13 13 13 14 16 16 17 18 18 18 18 17 12 10 14 16 18 18 17 15
25 23 19 18 18 16 17 11 11 10 10 9 9 9 10 14 13 10 7 4 0 4 7 7 8 9 10 10 11 12 13 12 11 12 12 11 10 10 10 10 9 8 8
23 20 18 18 16 15 14 9 9 9 8 8 7 9 11 13 16 15 12 8 6 4 3 5 5 5 6 6 6 5 6 6 5 5 5 6 5 4 3 2 3 6 8
21 18 18 16 14 13 10 7 7 9 7 6 5 6 10 13 16 17 17 15 12 11 9 7 8 8 8 6 6 6 5 4 4 4 5 5 5 6 7 8 10 11 12

GFSGL_500_spd_006.txt.gz
Wind_Speed
64 68 71 72 73 68 65 63 61 59 57 57 60 62 66 64 62 60 59 59 62 64 67 69 69 71 71 72 71 72 73 74 77 74 77 77 75 75 77 77 78 76 73
70 72 72 75 75 67 62 60 58 57 54 55 59 59 59 60 61 61 64 68 72 75 75 76 74 73 73 74 75 76 76 75 78 76 76 79 82 80 80 83 83 82 81
73 75 78 79 69 63 61 59 57 53 53 54 55 57 59 62 65 70 74 75 75 76 76 77 77 76 76 75 73 72 71 71 71 74 73 75 78 83 84 85 89 87 85
77 80 83 73 65 64 59 55 52 50 51 53 56 60 65 70 72 73 74 76 77 76 75 73 70 65 62 60 59 57 55 57 58 59 62 67 69 73 78 83 88 93 92
82 84 80 69 65 59 54 50 49 50 52 56 62 67 69 71 73 75 75 74 71 64 54 48 42 39 38 37 37 34 37 37 37 37 37 40 49 54 61 65 76 87 94
86 81 71 67 62 54 50 50 50 53 58 64 65 67 69 72 73 71 68 58 45 38 31 30 30 30 29 29 31 32 35 36 37 41 40 37 34 38 41 46 57 71 88
80 73 68 62 54 51 50 52 55 59 62 63 65 69 70 69 63 55 45 39 32 28 28 29 29 31 33 33 35 36 35 38 38 42 40 42 41 41 43 45 47 56 71
73 67 59 54 51 50 51 55 59 60 62 65 68 68 65 56 46 42 33 28 28 30 32 33 34 35 38 39 40 40 41 44 45 43 40 43 43 44 46 47 47 48 50
66 59 54 51 50 51 55 58 59 61 64 67 65 59 52 40 34 31 28 28 31 32 35 38 38 38 41 45 44 45 46 46 46 47 45 42 42 42 46 47 44 46 47
57 52 50 50 51 55 57 57 59 63 65 63 54 47 38 32 27 26 28 33 33 36 38 41 42 43 42 40 38 34 33 34 39 47 50 50 50 48 46 46 44 46 47
52 50 50 51 55 56 56 58 61 63 61 52 42 33 30 27 27 30 33 36 37 37 38 38 37 36 36 35 31 31 32 32 32 34 37 44 52 53 52 49 46 44 49
51 49 50 55 55 55 57 60 62 61 53 43 29 26 26 27 30 30 31 32 33 33 29 23 22 23 19 20 20 21 23 25 26 27 29 31 36 44 47 49 45 44 47
49 49 53 55 54 56 59 60 59 54 43 31 23 20 23 27 27 27 28 28 28 21 16 18 18 16 17 19 21 23 22 23 22 23 24 31 33 36 45 46 40 40 45
50 53 54 54 55 58 60 58 53 44 33 21 15 17 21 24 22 23 23 23 22 16 17 19 18 18 20 20 20 16 15 19 17 20 26 27 32 37 41 41 36 31 43
54 54 54 56 58 59 56 52 43 34 29 14 13 15 18 19 19 17 15 17 16 17 19 21 20 18 16 17 16 15 10 10 16 24 32 25 28 31 35 35 31 33 41
54 55 57 59 59 55 49 41 33 29 26 13 12 13 16 14 13 13 18 19 20 19 18 17 18 15 13 11 10 9 13 14 19 29 21 11 15 20 23 23 26 33 37
56 57 60 59 55 49 42 32 23 25 21 11 11 12 12 10 8 11 11 14 18 19 19 18 17 15 13 7 6 8 16 20 21 27 20 3 10 14 17 19 23 28 34
58 61 59 54 48 41 32 26 21 21 14 14 8 9 8 4 4 4 5 10 17 19 21 21 19 16 13 10 9 7 11 14 13 15 16 4 5 11 12 13 17 24 28
60 57 52 46 40 31 26 22 19 18 12 9 6 6 5 1 2 1 5 11 12 14 17 21 24 19 18 15 11 13 16 19 13 14 17 17 6 2 10 14 17 18 21
56 51 44 37 30 26 23 19 17 16 10 7 7 7 7 4 3 1 5 10 11 12 14 18 22 24 23 20 15 13 15 21 20 16 20 19 18 13 3 4 9 21 24
48 43 35 29 26 23 20 17 16 14 9 7 7 9 10 7 5 5 4 8 10 11 12 16 19 21 22 23 24 22 19 16 19 21 26 22 17 10 14 8 3 8 14
41 33 27 26 24 20 19 15 15 12 9 7 7 10 13 11 8 7 4 5 8 10 11 12 15 16 17 18 19 20 20 20 18 18 22 26 23 18 14 11 11 7 5
30 25 26 26 22 20 17 14 15 10 8 7 7 12 15 16 12 10 7 4 2 5 7 9 11 12 13 14 14 14 14 15 16 17 18 20 22 23 23 21 14 10 13
23 24 26 24 20 19 15 15 13 9 7 7 7 10 15 19 17 14 11 8 4 1 3 5 6 7 9 9 10 11 13 12 11 11 12 14 15 16 17 19 19 18 13
22 25 24 21 19 16 14 15 9 7 8 7 5 6 12 18 21 20 16 13 9 6 4 2 3 5 6 7 6 6 8 8 8 9 10 12 13 14 14 13 12 11 10
21 24 21 19 18 15 13 13 7 6 8 7 5 5 7 14 20 23 22 19 16 13 11 9 8 9 10 8 7 6 4 3 3 4 5 6 7 7 7 6 5 3 2

GFSGL_500_spd_009.txt.gz
Wind_Speed
62 65 68 69 71 71 71 70 66 59 59 58 60 59 58 57 59 60 63 63 62 61 61 62 62 62 62 63 64 66 66 67 65 64 66 69 70 72 76 79 81 82 83
67 70 72 73 73 72 71 66 60 59 59 57 57 56 55 56 57 58 61 61 62 64 66 69 70 71 72 71 71 71 72 74 75 71 73 72 72 74 75 78 80 82 83
74 75 75 76 75 77 73 66 60 59 55 53 53 52 53 55 57 59 63 66 68 69 70 71 73 74 74 74 75 76 76 77 78 78 79 79 79 80 81 83 83 84 86
78 77 78 77 77 74 65 60 56 52 51 50 51 52 54 56 61 65 67 68 70 71 71 71 71 70 69 69 70 70 72 74 74 76 77 78 82 85 88 88 88 89 90
79 80 80 78 76 71 61 54 51 49 48 49 51 54 58 61 63 66 68 69 68 67 62 57 53 50 49 46 45 44 48 52 57 62 66 69 72 76 82 86 90 90 92
82 82 80 78 69 60 55 50 49 49 50 52 56 57 59 62 64 66 66 63 58 49 41 37 32 30 30 30 30 30 32 32 29 29 33 45 53 59 68 74 79 86 90
82 80 75 66 58 52 48 48 49 49 52 54 55 58 61 63 64 62 57 48 35 28 26 23 24 25 28 29 30 30 30 31 32 32 28 28 31 33 38 40 51 67 77
78 75 67 58 51 48 48 48 48 53 53 54 57 60 62 63 59 53 39 26 24 24 25 28 29 29 32 33 32 33 35 35 34 33 33 37 39 40 41 44 46 44 42
74 64 57 51 48 48 47 48 52 52 54 56 60 61 61 57 50 34 25 24 26 29 32 34 35 36 37 39 38 37 37 40 40 39 39 41 43 45 45 47 48 46 41
63 57 51 48 48 47 48 52 52 54 56 59 60 58 55 51 35 24 25 28 30 31 31 33 36 38 39 40 41 40 36 33 33 34 35 38 45 47 48 47 47 45 43
57 51 49 48 47 49 53 53 54 55 58 59 56 49 47 35 23 22 28 30 29 29 30 30 28 23 20 23 28 31 33 32 31 34 36 38 41 45 51 53 50 49 47
51 50 48 47 50 53 53 54 56 58 58 56 48 39 34 26 21 25 28 27 27 27 26 23 23 23 21 22 17 16 18 20 20 21 23 24 27 31 36 43 52 54 52
50 49 47 50 54 54 54 56 58 58 55 48 38 30 23 20 21 25 24 23 24 22 21 21 23 24 20 21 19 17 18 16 17 17 19 20 22 28 34 38 38 44 50
50 48 51 54 55 55 57 58 57 54 49 40 29 19 17 16 19 19 19 19 18 16 16 19 21 21 19 19 18 16 17 14 16 18 20 22 30 31 34 35 40 36 43
48 51 55 56 56 58 59 58 53 49 43 30 21 14 11 12 14 13 11 13 12 13 15 17 20 22 22 13 13 13 13 14 13 17 26 32 37 45 39 35 34 34 38
52 56 56 57 59 59 57 52 48 42 33 22 15 10 7 7 8 7 8 9 11 14 17 14 17 23 20 14 8 9 11 16 19 22 26 32 25 12 18 23 29 33 37
56 56 58 60 58 55 51 46 37 30 26 19 12 10 5 3 3 3 3 5 9 18 20 17 14 16 16 16 14 15 13 12 14 19 20 12 4 5 8 14 20 26 30
57 59 59 57 53 48 43 37 29 23 17 19 12 9 6 5 5 4 3 4 8 13 16 18 12 14 12 12 14 12 10 7 12 19 22 11 7 3 5 10 14 19 23
58 57 53 48 43 38 33 28 23 17 14 13 12 10 10 8 7 5 1 2 4 9 11 13 16 16 13 9 10 13 17 20 19 18 20 21 12 6 1 6 9 13 18
56 51 45 38 32 28 27 22 18 13 12 10 10 10 13 11 10 7 2 2 3 6 8 10 12 15 17 14 9 10 14 20 24 23 20 20 19 15 6 1 5 7 8
45 40 35 28 26 26 23 19 16 11 11 9 8 10 15 14 12 9 4 3 3 5 6 8 9 11 14 15 16 16 17 20 22 25 26 24 17 17 17 11 6 3 12
36 32 26 24 27 24 19 18 13 11 10 9 7 9 16 16 14 12 9 5 3 3 4 5 7 8 9 10 12 13 14 17 20 23 24 26 27 23 18 20 18 13 8
31 25 24 27 25 22 20 15 11 12 8 8 6 8 16 18 16 14 13 9 5 2 1 2 4 6 7 8 9 10 10 11 12 14 17 20 23 26 26 17 17 20 19
26 21 27 25 23 21 17 14 13 10 7 8 6 6 12 18 19 17 16 13 10 7 5 3 3 5 7 7 7 8 10 9 10 11 14 15 17 18 20 22 22 19 16
21 23 28 23 22 20 17 13 13 9 6 7 6 5 8 15 20 21 19 17 15 12 10 8 7 7 8 9 8 8 8 7 6 6 8 10 11 12 13 14 14 14 14
26 26 26 22 21 20 16 14 12 8 7 7 7 5 5 8 15 21 24 23 20 18 16 14 13 12 12 12 11 9 8 7 6 7 7 7 7 8 9 9 8 7 7

GFSGL_500_spd_012.txt.gz
Wind_Speed
65 69 71 73 74 73 74 75 73 72 70 65 62 62 62 64 67 68 68 67 66 64 64 64 63 64 65 65 65 63 61 61 59 59 59 59 62 69 76 82 88 95 94
70 72 72 74 76 77 76 73 71 70 67 63 60 59 59 61 61 62 63 62 61 61 62 64 64 67 68 69 70 70 69 68 66 65 64 63 63 65 70 76 82 88 95
73 74 75 75 75 72 72 71 71 67 63 59 55 54 54 56 58 59 59 59 60 61 63 64 66 68 69 71 73 74 74 74 73 73 70 72 72 71 70 72 77 81 88
76 76 75 74 73 73 71 72 68 60 56 53 52 51 52 53 54 56 58 59 60 62 65 67 68 69 69 70 70 71 72 73 73 75 77 77 79 79 79 78 76 78 81
78 77 76 76 74 72 71 67 59 52 50 49 49 50 51 54 56 56 59 61 62 61 60 60 60 60 58 55 54 53 56 58 61 66 68 74 76 81 85 84 83 84 83
79 79 79 76 72 69 65 57 52 50 49 49 50 51 55 54 55 58 61 59 56 54 51 43 40 37 35 33 32 33 33 33 31 34 40 50 61 72 78 84 87 88 88
81 82 80 75 65 57 52 49 48 48 48 48 51 53 53 54 57 59 57 54 51 39 31 27 26 27 29 30 30 30 29 29 28 29 26 28 31 39 54 68 79 85 89
84 83 78 68 58 52 47 47 48 47 47 50 51 52 53 56 58 55 52 46 31 25 25 27 31 32 35 35 33 33 33 32 33 34 35 36 35 36 37 39 53 71 80
87 82 68 56 50 47 46 45 44 46 50 50 51 53 55 55 54 51 43 27 20 23 29 34 35 35 36 38 39 39 38 37 37 37 36 37 38 38 39 40 37 36 45
85 66 56 51 48 47 46 45 47 50 51 51 53 54 53 51 49 41 27 19 21 27 29 30 32 33 33 31 29 27 26 33 38 38 38 42 41 43 44 44 44 40 40
65 55 52 50 49 47 45 48 52 53 52 53 52 52 50 48 41 27 20 20 26 26 27 27 28 28 27 26 24 21 21 24 23 26 29 32 36 38 40 46 49 50 49
54 51 51 50 48 47 49 53 55 54 54 53 50 47 45 42 31 19 19 24 24 22 22 20 21 23 25 28 25 21 17 15 15 17 18 22 27 32 37 41 43 47 53
52 52 51 49 49 51 54 56 56 56 54 50 47 43 36 33 22 18 20 20 18 19 19 20 19 19 19 19 18 19 17 16 14 15 19 24 28 31 34 35 36 40 46
54 52 49 50 54 56 57 58 58 56 53 47 42 34 28 24 16 17 16 13 16 18 19 22 19 20 19 19 12 10 12 16 14 15 17 18 21 26 29 31 33 36 40
51 50 53 56 57 59 60 60 57 54 50 42 34 25 21 20 15 12 7 8 11 11 13 13 15 19 21 19 14 10 12 16 16 18 22 28 33 37 39 40 38 38 39
51 55 57 59 61 61 59 54 51 48 43 36 25 16 16 17 14 6 4 6 8 10 11 12 14 13 11 13 15 14 14 12 11 13 22 27 23 24 30 38 42 43 45
55 57 60 61 59 55 51 46 40 37 36 27 18 14 13 15 12 7 5 7 8 7 11 12 11 9 6 10 14 16 16 17 19 21 24 18 9 9 8 4 14 21 27
58 59 58 53 49 45 40 36 33 30 24 22 16 12 10 14 12 8 6 7 6 5 9 11 9 6 3 8 10 14 19 23 22 20 21 21 10 7 4 3 8 13 16
57 52 48 44 40 35 30 30 28 23 19 14 13 11 10 15 14 10 7 5 3 3 6 8 10 8 4 4 6 12 16 20 22 23 20 21 20 10 4 1 3 7 12
48 44 41 36 32 28 29 26 23 20 15 11 11 9 10 16 15 11 8 6 4 1 2 5 7 9 9 10 10 12 14 17 21 24 23 19 21 20 11 7 0 3 6
42 39 35 31 29 29 26 22 21 17 11 11 8 9 10 18 16 13 10 7 5 2 0 2 5 5 7 9 11 12 14 16 19 22 25 24 21 22 21 12 9 3 2
37 34 28 29 30 26 24 22 18 13 12 9 7 8 10 18 17 15 13 9 6 3 2 1 3 4 5 6 8 10 10 11 13 16 19 23 24 20 20 23 17 9 5
33 30 27 30 30 26 24 20 16 14 12 8 7 8 8 16 19 17 16 13 9 6 4 3 4 3 4 5 6 8 9 9 9 11 14 17 20 22 19 18 18 17 14
33 33 32 29 28 25 23 19 17 16 11 7 7 8 7 12 20 19 17 17 15 12 9 7 6 6 6 7 8 9 9 8 7 8 9 11 14 15 16 17 17 15 15
34 33 32 25 23 23 22 19 17 15 10 7 7 8 6 8 16 22 21 19 18 17 15 13 12 11 10 11 11 11 11 9 7 6 8 9 8 8 9 10 12 13 13
35 32 29 23 21 21 21 20 18 15 11 8 7 8 7 5 8 16 22 23 22 21 19 18 17 17 17 17 17 16 14 12 9 7 7 7 7 7 7 7 7 8 9